Location: Burera
(21.3780°N, 81.9534°E)
Time: 23:40:38
(UTC+00:00)

Cosmos 2278 Rocket - Pass Details

Date: 13 August 2020
Orbit: 842 x 844 km, 71.0° (Epoch: 22 September)

Event Time Altitude Azimuth Distance (km) Brightness Sun altitude
Exits shadow 23:01:19 16° 207° (SSW) 2,074 3.8 -16.0°
Maximum altitude 23:05:54 67° 288° (WNW) 907 2.2 -15.0°
Drops below altitude 10° 23:11:31 10° 11° (N) 2,460 5.1 -13.8°
Sets 23:13:59 0° 14° (NNE) 3,396 5.9 -13.3°
